STARLINK-1759 (46340 NORAD) Tracking and Keplerian Element Data

This shows tracking and keplerian element data for the satellite.

Feedback or suggestion? Click here.




ElementValue
Catalog46340
NameSTARLINK-1759
Epoch Orbit179
Epoch Day335.91670139
Epoch Year2020
RAAN17.2622
Inclination52.9992
Eccentricity0.0001352
Argument of Perigee75.8178
Mean Anonmoly259.5413
Mean Motion15.0559894
Decay Rate-0.00027554
L11 46340U 20062R 20335.91670139 -.00027554 00000-0 -18783-2 0 9990
L22 46340 52.9992 17.2622 0001352 75.8178 259.5413 15.05598940 1794

Live tracking and technical data element details for STARLINK-1759 (NORAD 46340). STARLINK-1759 can be tracked NOW for your location showing map with azimuth and elevation plus other details from your city location.

Track the satellite on the map from your city or location and see movement details for azimuth, elevation, latitude, longitude, range, height, and movement on the map or in text.







IsCatalogInMostPopularTable: catalog: 46340, numindb: 22
Update: records affected: 1



GetName: 46340 STARLINK-1759

Hit Count: updated at: Wed, 02 Dec 2020 06:03:44 GMT